Voltar ao catálogo

STARLINK-4152

AtivoComunicaçõesVLEO
NORAD 53136·PAYLOAD·🇺🇸 United States

Lançado Jul 17, 2022 de Cape Canaveral Space Force Station

Loading…

Próximas Passagens (próximas 24 horas)

TLE

AtualizadoSource: CelesTrak SupGP

Época: Sep 14, 2026, 20:36 UTC

1 53136C 22083E   26257.85881944  .00044297  00000+0  12675-2 0  2577
2 53136  53.1600  32.0389 0001201  72.9917  84.9111 15.35372979    15

Acompanhe STARLINK-4152 em tempo real com AllMySat

Download on the App Store